SCP
0 0 0 0 0 0 0 0 0 0 0 0 0 0 0 0 0 0 0 0 0 0 0 0 0 0 0
0 0 0 0 0 0 0 0 0 0 0 0 0 0 0 0 0 0 0 0 0 0 0 0 0 0 0
0 0 0 0 0 0 0 0 0 0 0 0 0 0 0 0 0 0 0 0 0 0 0 0 0 0 0
0 0 0 0 0 0 0 0 0 0 0 0 0 0 0 -0 -0 -0 -0 -0 0 0 0 0 0 0 0
0 0 0 0 0 0 0 0 0 0 0 0 0 0 0 0 0 -0 -0 -0 0 0 0 0 0 0 0
0 0 0 0 0 0 0 0 0 0 0 0 0 0 0 0 0 0 0 0 -0 0 0 0 0 0 0
0 0 0 0 0 0 0 0 0 0 0 0 0 0 0 0 0 0 0 -0 -0 0 0 0 0 0 0
0 0 0 0 0 0 0 0 0 0 0 0 0 0 0 0 0 -0 -0 -0 0 0 -0 -0 0 0 0
0 0 -0 -0 0 0 0 0 0 0 0 0 0 0 0 0 0 -0 -0 -0 0 0 0 0 0 0 0
0 0 0 0 0 0 0 0 0 0 0 0 0 0 0 0 0 0 0 -0 -0 -0 -0 0 0 0 0
0 0 0 0 0 0 0 0 0 0 0 0 0 0 0 0 0 0 0 0 0 0 -0 -0 -0 0 0
0 0 0 0 0 0 0 0 0 0 0 0 0 0 0 0 0 0 0 0 0 0 0 0 0 -0 0
0 0 0 0 0 0 0 0 0 0 0 0 0 0 0 0 0 0 0 0 0 0 0 0 0 0 -0
0 0 0 0 0 0 0 0 0 0 0 0 0 0 0 0 0 0 0 0 0 0 0 0 0 -0 0
0 0 0 0 0 0 0 0 0 0 0 0 -0 0 0 0 0 0 0 0 0 0 0 0 0 0 0
0 0 0 0 0 0 0 0 0 0 0 0 -0 -0 0 0 0 0 0 0 0 0 0 0 0 0 0
0 0 0 0 0 0 0 0 0 0 0 -0 -0 -0 0 0 0 0 0 0 0 0 0 0 0 0 0
Wind_Speed_500mb
97 99 101 94 92 82 78 76 82 75 74 87 98 85 80 83 83 84 86 86 88 91 88 91 93 89 91
98 109 102 101 99 86 74 64 79 108 87 80 80 83 83 82 81 81 83 85 86 86 88 90 90 90 92
96 97 100 89 84 83 90 76 83 81 79 78 79 77 77 81 84 87 87 88 88 86 87 88 88 88 89
84 90 85 77 88 83 92 87 91 86 79 85 79 79 83 83 79 78 79 81 85 87 88 87 87 87 85
81 77 93 89 85 92 91 93 88 82 86 91 82 87 94 82 78 76 75 74 76 79 80 84 86 87 88
85 87 87 89 97 91 82 97 95 78 67 98 88 94 93 88 80 72 74 75 78 79 80 80 81 82 82
83 82 91 93 85 104 92 86 92 98 87 96 92 99 93 90 79 74 74 75 78 78 79 79 79 80 81
70 78 79 89 81 82 89 93 92 91 72 87 94 97 94 92 85 76 73 71 71 69 69 74 77 78 79
63 76 75 63 63 70 79 81 86 89 90 76 83 88 96 92 72 64 61 65 66 69 71 72 72 71 76
85 69 62 65 63 61 70 76 81 91 86 75 86 84 65 69 67 83 76 67 60 63 64 68 72 73 76
69 73 71 70 68 68 65 66 78 83 79 73 78 85 65 83 87 89 71 79 75 67 61 63 68 72 79
74 74 74 73 73 71 66 66 64 70 71 61 73 77 83 87 86 87 84 77 70 55 45 41 47 59 73
72 71 71 71 72 74 70 69 70 66 65 64 63 70 69 74 81 84 88 84 39 62 60 47 43 44 55
69 68 70 71 70 73 78 79 81 82 71 67 63 60 63 52 59 76 77 62 76 65 39 28 24 35 48
68 70 70 71 72 71 72 75 75 81 86 78 62 57 52 40 56 77 71 64 65 50 28 9 8 24 38
65 68 70 73 74 72 68 72 73 77 80 72 72 73 69 53 52 79 66 61 64 58 51 39 16 6 16
68 69 69 70 71 69 69 70 70 73 72 64 66 66 63 54 58 68 80 53 56 62 59 60 57 21 13
Wind_Direction_500mb
314 313 311 310 311 307 304 297 297 292 293 293 293 291 287 284 281 279 277 275 272 270 270 266 266 265 261
306 309 312 315 312 307 305 296 297 304 295 294 293 290 287 284 282 281 277 275 272 269 266 264 261 260 259
300 307 307 309 307 308 308 303 299 299 299 296 293 292 289 287 285 282 279 276 273 269 266 263 262 260 259
301 301 302 311 311 308 307 309 306 304 302 297 296 293 291 289 286 282 279 276 274 271 269 267 264 262 260
302 313 315 312 312 313 305 306 306 306 301 302 302 299 302 301 295 290 283 279 275 270 267 263 261 259 256
314 309 309 311 313 307 310 308 306 312 306 301 303 300 304 307 303 289 284 281 278 273 268 265 261 258 254
308 310 310 312 313 311 309 306 303 305 307 300 309 303 306 307 301 290 284 279 276 274 269 264 260 258 254
311 310 311 309 307 304 307 307 305 308 306 295 308 305 313 310 309 295 287 283 278 274 271 264 260 256 253
312 310 312 312 312 311 310 313 308 310 319 302 309 305 310 312 311 306 292 286 280 272 273 263 258 256 251
316 319 328 333 329 325 323 311 309 310 327 310 311 314 311 307 307 310 314 311 290 279 271 262 254 251 251
327 333 335 333 334 334 332 327 319 309 330 318 310 317 305 305 310 318 317 314 308 298 282 264 252 244 245
333 331 333 335 336 337 337 336 331 324 334 335 317 317 312 305 303 321 327 324 320 310 299 278 253 241 233
329 333 334 336 339 342 342 342 340 345 346 344 333 327 321 310 309 320 328 333 329 319 314 290 264 242 226
333 334 337 340 341 345 343 346 343 348 354 354 344 339 335 331 327 334 346 322 343 342 323 287 249 228 223
336 337 339 341 342 345 345 345 346 346 351 354 353 354 359 349 348 351 352 357 12 19 37 37 191 214 212
339 341 341 342 342 344 345 347 346 349 348 351 355 358 9 15 5 2 14 19 28 38 57 64 61 120 200
342 343 342 344 345 344 345 346 348 348 350 356 358 -0 349 346 14 26 15 25 41 45 53 58 56 80 114
Wind_Speed_850mb
97 99 101 94 92 82 78 76 82 75 74 87 98 85 80 83 83 84 86 86 88 91 88 91 93 89 91
98 109 102 101 99 86 74 64 79 108 87 80 80 83 83 82 81 81 83 85 86 86 88 90 90 90 92
96 97 100 89 84 83 90 76 83 81 79 78 79 77 77 81 84 87 87 88 88 86 87 88 88 88 89
84 90 85 77 88 83 92 87 91 86 79 85 79 79 83 83 79 78 79 81 85 87 88 87 87 87 85
81 77 93 89 85 92 91 93 88 82 86 91 82 87 94 82 78 76 75 74 76 79 80 84 86 87 88
85 87 87 89 97 91 82 97 95 78 67 98 88 94 93 88 80 72 74 75 78 79 80 80 81 82 82
83 82 91 93 85 104 92 86 92 98 87 96 92 99 93 90 79 74 74 75 78 78 79 79 79 80 81
70 78 79 89 81 82 89 93 92 91 72 87 94 97 94 92 85 76 73 71 71 69 69 74 77 78 79
63 76 75 63 63 70 79 81 86 89 90 76 83 88 96 92 72 64 61 65 66 69 71 72 72 71 76
85 69 62 65 63 61 70 76 81 91 86 75 86 84 65 69 67 83 76 67 60 63 64 68 72 73 76
69 73 71 70 68 68 65 66 78 83 79 73 78 85 65 83 87 89 71 79 75 67 61 63 68 72 79
74 74 74 73 73 71 66 66 64 70 71 61 73 77 83 87 86 87 84 77 70 55 45 41 47 59 73
72 71 71 71 72 74 70 69 70 66 65 64 63 70 69 74 81 84 88 84 39 62 60 47 43 44 55
69 68 70 71 70 73 78 79 81 82 71 67 63 60 63 52 59 76 77 62 76 65 39 28 24 35 48
68 70 70 71 72 71 72 75 75 81 86 78 62 57 52 40 56 77 71 64 65 50 28 9 8 24 38
65 68 70 73 74 72 68 72 73 77 80 72 72 73 69 53 52 79 66 61 64 58 51 39 16 6 16
68 69 69 70 71 69 69 70 70 73 72 64 66 66 63 54 58 68 80 53 56 62 59 60 57 21 13
Wind_Direction_850mb
314 313 311 310 311 307 304 297 297 292 293 293 293 291 287 284 281 279 277 275 272 270 270 266 266 265 261
306 309 312 315 312 307 305 296 297 304 295 294 293 290 287 284 282 281 277 275 272 269 266 264 261 260 259
300 307 307 309 307 308 308 303 299 299 299 296 293 292 289 287 285 282 279 276 273 269 266 263 262 260 259
301 301 302 311 311 308 307 309 306 304 302 297 296 293 291 289 286 282 279 276 274 271 269 267 264 262 260
302 313 315 312 312 313 305 306 306 306 301 302 302 299 302 301 295 290 283 279 275 270 267 263 261 259 256
314 309 309 311 313 307 310 308 306 312 306 301 303 300 304 307 303 289 284 281 278 273 268 265 261 258 254
308 310 310 312 313 311 309 306 303 305 307 300 309 303 306 307 301 290 284 279 276 274 269 264 260 258 254
311 310 311 309 307 304 307 307 305 308 306 295 308 305 313 310 309 295 287 283 278 274 271 264 260 256 253
312 310 312 312 312 311 310 313 308 310 319 302 309 305 310 312 311 306 292 286 280 272 273 263 258 256 251
316 319 328 333 329 325 323 311 309 310 327 310 311 314 311 307 307 310 314 311 290 279 271 262 254 251 251
327 333 335 333 334 334 332 327 319 309 330 318 310 317 305 305 310 318 317 314 308 298 282 264 252 244 245
333 331 333 335 336 337 337 336 331 324 334 335 317 317 312 305 303 321 327 324 320 310 299 278 253 241 233
329 333 334 336 339 342 342 342 340 345 346 344 333 327 321 310 309 320 328 333 329 319 314 290 264 242 226
333 334 337 340 341 345 343 346 343 348 354 354 344 339 335 331 327 334 346 322 343 342 323 287 249 228 223
336 337 339 341 342 345 345 345 346 346 351 354 353 354 359 349 348 351 352 357 12 19 37 37 191 214 212
339 341 341 342 342 344 345 347 346 349 348 351 355 358 9 15 5 2 14 19 28 38 57 64 61 120 200
342 343 342 344 345 344 345 346 348 348 350 356 358 -0 349 346 14 26 15 25 41 45 53 58 56 80 114